Location: Unspecified
(0.0000°N, 0.0000°E)
Time: 01:37:50
(UTC+00:00)

Explorer 11/Cluster Stage 4 - Pass Details

Date: 25 November 2019
Orbit: 467 x 1259 km, 28.8° (Epoch: 11 December)

Event Time Altitude Azimuth Distance (km) Brightness Sun altitude
Exits shadow 02:26:30 28° 155° (SSE) 2,179 9.0 -45.9°
Drops below altitude 10° 02:30:13 10° 139° (SE) 3,189 10.2 -45.0°
Sets 02:33:12 0° 133° (SE) 4,101 11.0 -44.4°
